| time (UTC) | temp F | wind direction | speed knots | gust knots | rain 1hr in | rain 24hr in | rain mn in | humidity % | barometer mb |
| 20260506134018 | 48 | 227 | 2.6 | 6.1 | 0.00 | 0.00 | 0.00 | 97 | 1007.9 |
| 20260506133036 | 48 | 233 | 4.3 | 11.3 | 0.00 | 0.00 | 0.00 | 98 | 1007.8 |
| 20260506132034 | 47 | 230 | 3.5 | 6.1 | 0.00 | 0.00 | 0.00 | 98 | 1007.8 |
| 20260506131032 | 47 | 237 | 4.3 | 11.3 | 0.00 | 0.00 | 0.00 | 97 | 1007.7 |
| 20260506130030 | 48 | 236 | 2.6 | 7.8 | 0.00 | 0.00 | 0.00 | 98 | 1007.6 |
| 20260506125027 | 47 | 234 | 2.6 | 7.0 | 0.00 | 0.00 | 0.00 | 98 | 1007.6 |
| 20260506124025 | 47 | 216 | 2.6 | 7.0 | 0.00 | 0.00 | 0.00 | 98 | 1007.7 |
| 20260506123043 | 48 | 223 | 2.6 | 7.0 | 0.00 | 0.00 | 0.00 | 98 | 1007.6 |
| 20260506122021 | 48 | 223 | 2.6 | 7.0 | 0.00 | 0.00 | 0.00 | 98 | 1007.4 |
| 20260506121019 | 48 | 226 | 1.7 | 3.5 | 0.00 | 0.00 | 0.00 | 98 | 1007.4 |
| 20260506120017 | 48 | 219 | 2.6 | 5.2 | 0.00 | 0.00 | 0.00 | 99 | 1007.2 |
| 20260506115035 | 47 | 222 | 1.7 | 5.2 | 0.00 | 0.00 | 0.00 | 98 | 1007.2 |
| 20260506114032 | 48 | 234 | 4.3 | 10.4 | 0.00 | 0.00 | 0.00 | 99 | 1007.2 |
| 20260506113031 | 47 | 231 | 4.3 | 9.6 | 0.00 | 0.00 | 0.00 | 98 | 1007.1 |
| 20260506112028 | 47 | 229 | 2.6 | 7.8 | 0.00 | 0.00 | 0.00 | 98 | 1007.2 |
| 20260506111026 | 47 | 232 | 2.6 | 7.8 | 0.00 | 0.00 | 0.00 | 98 | 1007.2 |
| 20260506110024 | 47 | 235 | 4.3 | 7.8 | 0.00 | 0.00 | 0.00 | 97 | 1007.1 |
| 20260506105022 | 47 | 229 | 2.6 | 7.8 | 0.00 | 0.00 | 0.00 | 97 | 1007.1 |
| 20260506104019 | 48 | 232 | 2.6 | 8.7 | 0.00 | 0.00 | 0.00 | 98 | 1006.9 |
| 20260506103038 | 48 | 233 | 4.3 | 10.4 | 0.00 | 0.00 | 0.00 | 98 | 1006.9 |
| 20260506102015 | 48 | 228 | 3.5 | 8.7 | 0.00 | 0.00 | 0.00 | 98 | 1006.8 |
| 20260506101033 | 48 | 230 | 3.5 | 7.8 | 0.00 | 0.00 | 0.00 | 98 | 1006.7 |
| 20260506100031 | 48 | 211 | 2.6 | 7.0 | 0.00 | 0.00 | 0.00 | 98 | 1006.7 |
| 20260506095029 | 48 | 224 | 2.6 | 7.0 | 0.00 | 0.00 | 0.00 | 98 | 1006.6 |
| 20260506094047 | 48 | 232 | 3.5 | 8.7 | 0.00 | 0.00 | 0.00 | 98 | 1006.5 |
| 20260506093025 | 48 | 232 | 1.7 | 7.0 | 0.00 | 0.00 | 0.00 | 98 | 1006.4 |
| 20260506092022 | 49 | 235 | 1.7 | 5.2 | 0.00 | 0.00 | 0.00 | 99 | 1006.3 |
| 20260506091020 | 49 | 195 | 1.7 | 5.2 | 0.00 | 0.00 | 0.00 | 99 | 1006.0 |
| 20260506090018 | 49 | 243 | 1.7 | 3.5 | 0.00 | 0.00 | 0.00 | 99 | 1006.2 |
| 20260506085016 | 49 | 218 | 1.7 | 4.3 | 0.00 | 0.00 | 0.00 | 99 | 1006.1 |
| 20260506084034 | 49 | 238 | 2.6 | 7.8 | 0.00 | 0.00 | 0.00 | 98 | 1006.0 |
| 20260506083032 | 49 | 239 | 1.7 | 8.7 | 0.00 | 0.00 | 0.00 | 99 | 1006.0 |
| 20260506082030 | 49 | 205 | 1.7 | 5.2 | 0.00 | 0.00 | 0.00 | 99 | 1006.0 |
| 20260506081028 | 49 | 219 | 2.6 | 6.1 | 0.00 | 0.00 | 0.00 | 99 | 1005.9 |
| 20260506073019 | 49 | 227 | 2.6 | 5.2 | 0.00 | 0.00 | 0.00 | 99 | 1005.7 |
| 20260506072037 | 49 | 236 | 4.3 | 7.0 | 0.00 | 0.00 | 0.00 | 99 | 1005.8 |
| 20260506071035 | 49 | 229 | 3.5 | 7.0 | 0.00 | 0.00 | 0.00 | 99 | 1005.7 |
| 20260506062024 | 49 | 234 | 3.5 | 8.7 | 0.00 | 0.00 | 0.00 | 99 | 1005.5 |
| 20260506061022 | 49 | 207 | 1.7 | 4.3 | 0.00 | 0.00 | 0.00 | 99 | 1005.4 |
| 20260506051109 | 49 | 229 | 1.7 | 5.2 | 0.00 | 0.00 | 0.00 | 99 | 1005.4 |
| 20260506045044 | 49 | 217 | 0.9 | 2.6 | 0.00 | 0.00 | 0.00 | 99 | 1005.3 |
| 20260506044022 | 49 | 229 | 3.5 | 7.8 | 0.00 | 0.00 | 0.00 | 99 | 1005.2 |
| 20260506043020 | 49 | 234 | 2.6 | 7.8 | 0.00 | 0.00 | 0.00 | 99 | 1005.3 |
| 20260506042018 | 49 | 229 | 3.5 | 8.7 | 0.00 | 0.00 | 0.00 | 99 | 1005.1 |
| 20260506041016 | 49 | 231 | 2.6 | 7.8 | 0.00 | 0.00 | 0.00 | 99 | 1005.3 |
| 20260506040034 | 49 | 233 | 4.3 | 8.7 | 0.00 | 0.00 | 0.00 | 99 | 1005.3 |
| 20260506035051 | 49 | 231 | 3.5 | 7.8 | 0.00 | 0.00 | 0.00 | 99 | 1005.3 |
| 20260506034029 | 49 | 234 | 4.3 | 7.0 | 0.00 | 0.00 | 0.00 | 99 | 1005.3 |
| 20260506033027 | 49 | 229 | 3.5 | 8.7 | 0.00 | 0.00 | 0.00 | 99 | 1005.4 |
| 20260506032025 | 49 | 231 | 3.5 | 7.8 | 0.00 | 0.00 | 0.00 | 99 | 1005.5 |
| 20260506031023 | 49 | 233 | 3.5 | 7.8 | 0.00 | 0.00 | 0.00 | 99 | 1005.5 |
| 20260506030021 | 49 | 224 | 2.6 | 7.0 | 0.00 | 0.00 | 0.00 | 99 | 1005.6 |
| 20260506025039 | 49 | 235 | 6.1 | 11.3 | 0.00 | 0.00 | 0.00 | 99 | 1005.5 |
| 20260506024016 | 49 | 234 | 5.2 | 12.2 | 0.00 | 0.00 | 0.00 | 99 | 1005.6 |
| 20260506023034 | 49 | 235 | 5.2 | 11.3 | 0.00 | 0.00 | 0.00 | 99 | 1005.6 |
| 20260506022032 | 49 | 241 | 4.3 | 11.3 | 0.00 | 0.00 | 0.00 | 99 | 1005.7 |
| 20260506021030 | 50 | 237 | 5.2 | 10.4 | 0.00 | 0.00 | 0.00 | 99 | 1005.8 |
| 20260506020028 | 50 | 237 | 5.2 | 9.6 | 0.00 | 0.00 | 0.00 | 99 | 1005.7 |
| 20260506015025 | 50 | 231 | 4.3 | 11.3 | 0.00 | 0.00 | 0.00 | 99 | 1005.8 |
| 20260506014024 | 50 | 236 | 4.3 | 8.7 | 0.00 | 0.00 | 0.00 | 99 | 1005.8 |
| 20260506013021 | 50 | 229 | 2.6 | 9.6 | 0.00 | 0.00 | 0.00 | 99 | 1005.9 |
| 20260506012019 | 50 | 227 | 2.6 | 6.1 | 0.00 | 0.00 | 0.00 | 99 | 1005.9 |
| 20260506011037 | 50 | 219 | 2.6 | 7.8 | 0.00 | 0.00 | 0.00 | 99 | 1006.0 |
| 20260506010135 | 50 | 230 | 3.5 | 7.8 | 0.00 | 0.00 | 0.00 | 99 | 1005.9 |
| 20260506005053 | 50 | 227 | 1.7 | 5.2 | 0.00 | 0.00 | 0.00 | 99 | 1006.1 |
| 20260506004030 | 50 | 226 | 2.6 | 6.1 | 0.00 | 0.00 | 0.00 | 99 | 1006.1 |
| 20260506003028 | 50 | 228 | 2.6 | 7.8 | 0.00 | 0.00 | 0.00 | 99 | 1006.2 |
| 20260506002026 | 50 | 233 | 2.6 | 7.0 | 0.00 | 0.00 | 0.00 | 99 | 1006.3 |
| 20260506001024 | 50 | 227 | 3.5 | 7.8 | 0.00 | 0.00 | 0.00 | 99 | 1006.3 |
| 20260506000022 | 50 | 213 | 2.6 | 5.2 | 0.00 | 0.00 | 0.00 | 99 | 1006.5 |
| 20260505235020 | 50 | 219 | 1.7 | 4.3 | 0.00 | 0.00 | 0.00 | 99 | 1006.6 |
| 20260505234158 | 50 | 228 | 1.7 | 3.5 | 0.00 | 0.00 | 0.00 | 99 | 1006.7 |
| 20260505233016 | 51 | 255 | 1.7 | 3.5 | 0.00 | 0.00 | 0.00 | 99 | 1006.8 |
| 20260505232033 | 51 | 228 | 2.6 | 7.8 | 0.00 | 0.00 | 0.00 | 99 | 1006.8 |
| 20260505231031 | 51 | 225 | 2.6 | 7.0 | 0.00 | 0.00 | 0.00 | 99 | 1006.8 |
| 20260505230029 | 51 | 230 | 2.6 | 7.0 | 0.00 | 0.00 | 0.00 | 99 | 1007.0 |
| 20260505225047 | 51 | 237 | 1.7 | 6.1 | 0.00 | 0.00 | 0.00 | 99 | 1006.9 |
| 20260505224025 | 51 | 232 | 1.7 | 4.3 | 0.00 | 0.00 | 0.00 | 99 | 1007.0 |
| 20260505223022 | 51 | 231 | 2.6 | 7.8 | 0.00 | 0.00 | 0.00 | 99 | 1007.0 |
| 20260505222020 | 51 | 221 | 1.7 | 5.2 | 0.00 | 0.00 | 0.00 | 99 | 1007.1 |
| 20260505221018 | 51 | 224 | 1.7 | 6.1 | 0.00 | 0.00 | 0.00 | 99 | 1007.1 |
| 20260505220036 | 51 | 233 | 2.6 | 6.1 | 0.00 | 0.00 | 0.00 | 99 | 1007.2 |
| 20260505215034 | 51 | 229 | 2.6 | 5.2 | 0.00 | 0.00 | 0.00 | 99 | 1007.3 |
| 20260505214032 | 51 | 230 | 2.6 | 8.7 | 0.00 | 0.00 | 0.00 | 99 | 1007.4 |
| 20260505213029 | 51 | 226 | 1.7 | 4.3 | 0.00 | 0.00 | 0.00 | 99 | 1007.5 |
| 20260505212027 | 51 | 222 | 3.5 | 8.7 | 0.00 | 0.00 | 0.00 | 99 | 1007.5 |
| 20260505211025 | 51 | 231 | 1.7 | 4.3 | 0.00 | 0.00 | 0.00 | 99 | 1007.5 |
| 20260505210023 | 51 | 225 | 2.6 | 7.0 | 0.00 | 0.00 | 0.00 | 99 | 1007.6 |
| 20260505205021 | 51 | 226 | 2.6 | 6.1 | 0.00 | 0.00 | 0.00 | 99 | 1007.7 |
| 20260505204019 | 51 | 238 | 2.6 | 5.2 | 0.00 | 0.00 | 0.00 | 99 | 1007.7 |
| 20260505203037 | 51 | 228 | 1.7 | 6.1 | 0.00 | 0.00 | 0.00 | 98 | 1007.8 |
| 20260505202034 | 51 | 263 | 1.7 | 3.5 | 0.00 | 0.00 | 0.00 | 98 | 1007.8 |
| 20260505201032 | 51 | 230 | 3.5 | 7.0 | 0.00 | 0.00 | 0.00 | 98 | 1007.7 |
| 20260505200030 | 51 | 224 | 3.5 | 7.8 | 0.00 | 0.00 | 0.00 | 97 | 1007.7 |
| 20260505195028 | 51 | 225 | 4.3 | 8.7 | 0.00 | 0.00 | 0.00 | 97 | 1007.8 |
| 20260505194026 | 51 | 248 | 2.6 | 5.2 | 0.00 | 0.00 | 0.00 | 96 | 1007.8 |
| 20260505193024 | 51 | 227 | 4.3 | 8.7 | 0.00 | 0.00 | 0.00 | 96 | 1007.8 |
| 20260505192022 | 51 | 225 | 4.3 | 10.4 | 0.00 | 0.00 | 0.00 | 95 | 1007.8 |
| 20260505191019 | 51 | 247 | 4.3 | 9.6 | 0.00 | 0.00 | 0.00 | 94 | 1007.6 |
| 20260505190017 | 52 | 229 | 2.6 | 7.8 | 0.00 | 0.00 | 0.00 | 94 | 1007.8 |
| 20260505185015 | 52 | 223 | 2.6 | 4.3 | 0.00 | 0.00 | 0.00 | 94 | 1007.8 |
| 20260505184033 | 52 | 223 | 1.7 | 5.2 | 0.00 | 0.00 | 0.00 | 93 | 1007.7 |
| 20260505183031 | 52 | 224 | 1.7 | 5.2 | 0.00 | 0.00 | 0.00 | 93 | 1007.7 |
| 20260505182029 | 52 | 233 | 3.5 | 9.6 | 0.00 | 0.00 | 0.00 | 93 | 1007.8 |
| 20260505181026 | 52 | 218 | 1.7 | 5.2 | 0.00 | 0.00 | 0.00 | 93 | 1007.7 |
| 20260505180104 | 52 | 232 | 2.6 | 6.1 | 0.00 | 0.00 | 0.00 | 93 | 1007.8 |
| 20260505175042 | 52 | 230 | 2.6 | 6.1 | 0.00 | 0.00 | 0.00 | 93 | 1007.8 |
| 20260505174020 | 52 | 224 | 1.7 | 6.1 | 0.00 | 0.00 | 0.00 | 93 | 1007.9 |
| 20260505173018 | 52 | 229 | 2.6 | 7.8 | 0.00 | 0.00 | 0.00 | 93 | 1007.9 |
| 20260505172016 | 52 | 230 | 2.6 | 7.0 | 0.00 | 0.00 | 0.00 | 93 | 1007.9 |
| 20260505171033 | 52 | 236 | 5.2 | 8.7 | 0.00 | 0.00 | 0.00 | 92 | 1007.9 |
| 20260505170051 | 52 | 230 | 2.6 | 6.1 | 0.00 | 0.00 | 0.00 | 92 | 1007.8 |
| 20260505165029 | 53 | 229 | 2.6 | 6.1 | 0.00 | 0.00 | 0.00 | 92 | 1007.9 |
| 20260505164047 | 53 | 234 | 3.5 | 7.8 | 0.00 | 0.00 | 0.00 | 92 | 1008.0 |
| 20260505163025 | 53 | 221 | 2.6 | 7.0 | 0.00 | 0.00 | 0.00 | 92 | 1007.9 |
| 20260505162022 | 53 | 228 | 1.7 | 6.1 | 0.00 | 0.00 | 0.00 | 91 | 1008.1 |
| 20260505161040 | 53 | 224 | 1.7 | 5.2 | 0.00 | 0.00 | 0.00 | 92 | 1008.0 |
| 20260505153052 | 53 | 238 | 5.2 | 8.7 | 0.00 | 0.00 | 0.00 | 91 | 1008.1 |
| 20260505152029 | 53 | 259 | 1.7 | 5.2 | 0.00 | 0.00 | 0.00 | 92 | 1008.4 |
| 20260505151047 | 53 | 220 | 2.6 | 7.8 | 0.00 | 0.00 | 0.00 | 93 | 1008.5 |